This is the latest recevied weather packets stored in our database for station/object KB1FPD. If no packets are shown the sender has not sent any weather packets the latest 10 day(s).
| Time | Temp. | Humidity | Pressure | Rain* | Wind** | Luminosity | Snow |
|---|---|---|---|---|---|---|---|
| 1777668488 | 16.11° C | 52% | 1010 hPa | 0 mm | - | - | - |
| 1777668194 | 15.56° C | 51% | 1010.3 hPa | 0 mm | - | - | - |
| 1777667882 | 15.56° C | 50% | 1010.3 hPa | 0 mm | - | - | - |
| 1777667587 | 15.56° C | 50% | 1010.4 hPa | 0 mm | - | - | - |
| 1777667281 | 15.56° C | 49% | 1010.5 hPa | 0 mm | - | - | - |
| 1777666988 | 16.11° C | 49% | 1010.7 hPa | 0 mm | - | - | - |
| 1777666682 | 16.11° C | 52% | 1010.8 hPa | 0 mm | - | - | - |
| 1777666381 | 16.67° C | 49% | 1010.7 hPa | 0 mm | - | - | - |
| 1777666091 | 16.67° C | 50% | 1010.7 hPa | 0 mm | - | - | - |
| 1777665788 | 16.11° C | 55% | 1010.6 hPa | 0 mm | - | - | - |
| 1777665478 | 16.11° C | 50% | 1010.8 hPa | 0 mm | - | - | - |
| 1777665178 | 16.11° C | 49% | 1010.9 hPa | 0 mm | - | - | - |
| 1777664875 | 16.11° C | 52% | 1011 hPa | 0 mm | - | - | - |
| 1777664579 | 16.11° C | 54% | 1011 hPa | 0 mm | - | - | - |
| 1777664278 | 16.11° C | 49% | 1011 hPa | 0 mm | - | - | - |
| 1777663981 | 16.67° C | 54% | 1011.1 hPa | 0 mm | - | - | - |
| 1777663677 | 16.67° C | 55% | 1011 hPa | 0 mm | - | - | - |
| 1777663376 | 16.67° C | 56% | 1011.1 hPa | 0 mm | - | - | - |
| 1777663075 | 16.11° C | 55% | 1011.1 hPa | 0 mm | - | - | - |
| 1777662774 | 16.11° C | 52% | 1011.3 hPa | 0 mm | - | - | - |
| 1777662474 | 16.11° C | 54% | 1011.4 hPa | 0 mm | - | - | - |
| 1777662173 | 16.11° C | 53% | 1012 hPa | 0 mm | - | - | - |
| 1777661872 | 16.11° C | 52% | 1011.7 hPa | 0 mm | - | - | - |
| 1777661571 | 15.56° C | 60% | 1011.7 hPa | 0 mm | - | - | - |
| 1777661272 | 15° C | 56% | 1011.7 hPa | 0 mm | - | - | - |
* Rain latest hour (hover to see other rain measurements)
** Current wind speed in m/s (hover to see current wind gust speed)